Weather History for Pompano Beach, FL

Change the Weather History Date:

Tuesday, July 2, 2013

  Actual Average Record
Temperature  
Mean Temperature 83 °F -  
Max Temperature 88 °F 90 °F 95 °F (1982)
Min Temperature 78 °F 73 °F 67 °F (1950)
Cooling Degree Days 18    
Growing Degree Days 33 (Base 50)    
Moisture  
Dew Point 77 °F    
Average Humidity 85    
Maximum Humidity 100    
Minimum Humidity 72    
Precipitation  
Precipitation 0.03 in - - ()
Sea Level Pressure  
Sea Level Pressure 30.06 in    
Wind  
Wind Speed 9 mph (SSE)    
Max Wind Speed 16 mph    
Max Gust Speed 21 mph    
Visibility 10 miles    
Events Rain    
Averages and records for this station are not official NWS values.
T = Trace of Precipitation, MM = Missing Value Source: NWS Daily Summary

Daily Weather History Graph

Daily Weather History Graph

Search for Another Location

Airport:

Trip Planner

Search our weather history database for the weather conditions in past years. The results will help you decide how hot, cold, wet, or windy it might be!

Date:

Astronomy

Jul. 02, 2013 Rise Set
Actual Time 6:32 AM EDT 8:16 PM EDT
Civil Twilight 6:05 AM EDT 8:43 PM EDT
Nautical Twilight 5:34 AM EDT 9:14 PM EDT
Astronomical Twilight 5:01 AM EDT 9:47 PM EDT
Moon 2:17 AM EDT (7/2) 3:42 PM EDT (7/2)
Length of Visible Light 14h 37m
Length of Day
13h 44m
Waning Crescent, 26% of the Moon is Illuminated
Jul 2
Waning Crescent
Jul 8
New
Jul 15
First Quarter
Jul 22
Full
Jul 29
Last Quarter

Hourly Weather History & Observations

Time (EDT) Temp. Heat Index Dew Point Humidity Pressure Visibility Wind Dir Wind Speed Gust Speed Precip Events Conditions
12:53 AM 82.0 °F 91.0 °F 78.1 °F 88% 30.04 in 10.0 mi SE 3.5 mph - N/A   Partly Cloudy
1:53 AM 82.0 °F 91.0 °F 78.1 °F 88% 30.02 in 10.0 mi SE 11.5 mph - N/A   Clear
2:53 AM 80.1 °F 87.4 °F 80.1 °F 100% 30.01 in 9.0 mi SSE 8.1 mph - 0.02 in Rain Light Rain
3:53 AM 79.0 °F - 77.0 °F 94% 30.00 in 10.0 mi SSE 3.5 mph - 0.00 in   Partly Cloudy
4:53 AM 81.0 °F 89.2 °F 79.0 °F 94% 29.99 in 10.0 mi SE 13.8 mph - 0.01 in   Partly Cloudy
5:53 AM 82.0 °F 91.0 °F 78.1 °F 88% 30.01 in 10.0 mi SE 16.1 mph - N/A   Clear
6:53 AM 82.0 °F 91.6 °F 79.0 °F 90% 30.02 in 10.0 mi SE 13.8 mph - 0.00 in Rain Light Rain
7:53 AM 82.9 °F 93.8 °F 79.0 °F 88% 30.04 in 10.0 mi SE 10.4 mph - 0.00 in   Partly Cloudy
8:53 AM 84.0 °F 96.0 °F 79.0 °F 85% 30.06 in 10.0 mi SE 10.4 mph - N/A   Clear
10:53 AM 86.0 °F 98.3 °F 78.1 °F 77% 30.07 in 10.0 mi SE 15.0 mph 20.7 mph N/A   Scattered Clouds
11:53 AM 88.0 °F 101.3 °F 78.1 °F 72% 30.07 in 10.0 mi SE 15.0 mph 20.7 mph N/A   Partly Cloudy
12:53 PM 84.9 °F 97.5 °F 79.0 °F 82% 30.08 in 10.0 mi SSE 10.4 mph - N/A   Mostly Cloudy
1:53 PM 84.0 °F 94.8 °F 78.1 °F 82% 30.07 in 10.0 mi SSE 12.7 mph - 0.00 in   Mostly Cloudy
2:53 PM 84.9 °F 96.6 °F 78.1 °F 80% 30.06 in 10.0 mi SE 13.8 mph - N/A   Scattered Clouds
3:53 PM 87.1 °F 99.8 °F 78.1 °F 74% 30.06 in 10.0 mi SE 12.7 mph - N/A   Clear
4:53 PM 82.9 °F 91.8 °F 77.0 °F 82% 30.04 in 10.0 mi SSE 9.2 mph - N/A   Mostly Cloudy
5:53 PM 84.0 °F 91.9 °F 75.0 °F 74% 30.05 in 10.0 mi South 8.1 mph - N/A   Mostly Cloudy
6:53 PM 82.0 °F 87.9 °F 73.9 °F 76% 30.09 in 10.0 mi South 6.9 mph - N/A   Mostly Cloudy
7:53 PM 82.0 °F 89.4 °F 75.9 °F 82% 30.09 in 10.0 mi South 5.8 mph - N/A   Clear
8:53 PM 81.0 °F 87.9 °F 77.0 °F 88% 30.10 in 10.0 mi South 4.6 mph - N/A   Clear
9:53 PM 79.0 °F - 75.0 °F 88% 30.12 in 10.0 mi Calm Calm - N/A   Clear
10:53 PM 78.1 °F - 75.9 °F 93% 30.12 in 10.0 mi Calm Calm - N/A   Clear
11:53 PM 78.1 °F - 75.9 °F 93% 30.12 in 10.0 mi Calm Calm - N/A   Clear